Location: Oshawa
(43.9000°N, 78.8670°W)
Time: 05:48:20
(UTC-04:00)

Cosmos 839 Rocket - Visible Passes

Search period start: 30 September 2014 00:00
Search period end: 10 October 2014 00:00
Orbit: 968 x 2084 km, 65.9° (Epoch: 29 September)

Date Brightness Start Highest point End Pass type
(mag) Time Alt. Az. Time Alt. Az. Time Alt. Az.
30 Sep 6.3 20:58:31 10° WNW 21:03:21 23° WSW 21:08:42 10° SSW visible
01 Oct 5.6 20:15:59 10° NW 20:21:40 37° WSW 20:28:07 10° S visible
02 Oct 4.9 19:33:49 10° NW 19:39:54 58° WSW 19:46:54 10° SSE visible
03 Oct 6.9 20:54:07 10° WNW 20:57:18 14° WSW 21:00:42 10° SW visible
04 Oct 6.4 20:10:48 10° WNW 20:15:43 24° WSW 20:21:11 10° SSW visible
05 Oct 5.8 19:28:17 10° NW 19:34:01 38° WSW 19:40:34 10° S visible
07 Oct 7.1 20:06:19 10° WNW 20:09:40 15° WSW 20:13:16 10° SW visible
08 Oct 6.7 19:23:04 10° WNW 19:28:04 24° WSW 19:33:40 10° SSW visible
